• In Sweden
  • List of Countries
  • For 7 days
  • Water Temperature
  • Satellite Maps
  • Weather Map
  • Weather Widgets
  • user-avatar
    Login

    Hourly Weather Barnsley

    Today, 24 September, Sunday

    Time Temperature Precipitation Wind Pressure Humidity
    00:00 +13°C° 0 mm 3 mps 754 mmHg 76%
    01:00 +12°C° 0 mm 3 mps 753 mmHg 75%
    02:00 +12°C° 0 mm 3 mps 753 mmHg 74%
    03:00 +12°C° 0 mm 3 mps 753 mmHg 74%
    04:00 +11°C° 0 mm 3 mps 753 mmHg 77%
    05:00 +10°C° 0 mm 3 mps 753 mmHg 80%
    06:00 +10°C° 0 mm 2 mps 753 mmHg 84%
    07:00 +11°C° 0 mm 3 mps 753 mmHg 82%
    08:00 +13°C° 0 mm 4 mps 753 mmHg 79%
    09:00 +14°C° 0 mm 4 mps 753 mmHg 76%
    10:00 +17°C° 0 mm 4 mps 753 mmHg 72%
    11:00 +17°C° 0 mm 5 mps 753 mmHg 67%
    12:00 +19°C° 0 mm 5 mps 753 mmHg 61%
    13:00 +19°C° 0 mm 4 mps 753 mmHg 62%
    14:00 +19°C° 0 mm 4 mps 753 mmHg 63%
    15:00 +19°C° 0 mm 4 mps 753 mmHg 63%
    16:00 +18°C° 0 mm 4 mps 753 mmHg 65%
    17:00 +18°C° 0 mm 3 mps 753 mmHg 66%
    18:00 +17°C° 0 mm 3 mps 753 mmHg 68%
    19:00 +17°C° 0 mm 3 mps 753 mmHg 69%
    20:00 +16°C° 0 mm 3 mps 753 mmHg 70%
    21:00 +16°C° 0 mm 3 mps 753 mmHg 71%
    22:00 +16°C° 0 mm 3 mps 753 mmHg 74%
    23:00 +14°C° 0 mm 3 mps 753 mmHg 77%

    Tomorrow, 25 September, Monday

    Time Temperature Precipitation Wind Pressure Humidity
    00:00 +14°C° 0 mm 3 mps 753 mmHg 81%
    01:00 +15°C° 0.3 mm 2 mps 753 mmHg 84%
    02:00 +15°C° 0.3 mm 2 mps 753 mmHg 87%
    03:00 +14°C° 0.3 mm 2 mps 753 mmHg 89%
    04:00 +14°C° 0.8 mm 2 mps 753 mmHg 91%
    05:00 +14°C° 0.8 mm 2 mps 753 mmHg 93%
    06:00 +14°C° 0.8 mm 2 mps 753 mmHg 94%
    07:00 +15°C° 0.9 mm 2 mps 753 mmHg 94%
    08:00 +15°C° 0.9 mm 2 mps 754 mmHg 93%
    09:00 +14°C° 0.9 mm 3 mps 754 mmHg 93%
    10:00 +14°C° 0.5 mm 3 mps 754 mmHg 92%
    11:00 +15°C° 0.5 mm 2 mps 754 mmHg 91%
    12:00 +15°C° 0.5 mm 2 mps 754 mmHg 90%
    13:00 +16°C° 0.1 mm 2 mps 754 mmHg 88%
    14:00 +16°C° 0.1 mm 2 mps 754 mmHg 86%
    15:00 +16°C° 0.1 mm 2 mps 754 mmHg 85%
    16:00 +16°C° 0 mm 2 mps 755 mmHg 86%
    17:00 +15°C° 0 mm 2 mps 755 mmHg 88%
    18:00 +15°C° 0 mm 1 mps 755 mmHg 90%
    19:00 +15°C° 0 mm 1 mps 755 mmHg 91%
    20:00 +14°C° 0 mm 1 mps 755 mmHg 93%
    21:00 +14°C° 0 mm 1 mps 756 mmHg 94%
    22:00 +14°C° 0 mm 1 mps 755 mmHg 95%
    23:00 +13°C° 0 mm 1 mps 755 mmHg 96%

    Day after tomorrow, 26 September, Tuesday

    Time Temperature Precipitation Wind Pressure Humidity
    00:00 +13°C° 0 mm 1 mps 755 mmHg 97%
    01:00 +13°C° 0 mm 1 mps 755 mmHg 96%
    02:00 +13°C° 0 mm 1 mps 755 mmHg 96%
    03:00 +13°C° 0 mm 1 mps 755 mmHg 96%
    04:00 +13°C° 0 mm 1 mps 755 mmHg 96%
    05:00 +13°C° 0 mm 1 mps 755 mmHg 96%
    06:00 +13°C° 0 mm 1 mps 756 mmHg 96%
    07:00 +14°C° 0 mm 1 mps 756 mmHg 93%
    08:00 +15°C° 0 mm 1 mps 756 mmHg 90%
    09:00 +15°C° 0 mm 1 mps 756 mmHg 86%
    10:00 +16°C° 0 mm 1 mps 756 mmHg 83%
    11:00 +18°C° 0 mm 1 mps 756 mmHg 79%
    12:00 +18°C° 0 mm 2 mps 756 mmHg 76%
    13:00 +19°C° 0.1 mm 1 mps 755 mmHg 75%
    14:00 +19°C° 0.1 mm 1 mps 755 mmHg 73%
    15:00 +19°C° 0.1 mm 1 mps 755 mmHg 72%
    16:00 +18°C° 0 mm 1 mps 755 mmHg 76%
    17:00 +17°C° 0 mm 2 mps 755 mmHg 80%
    18:00 +16°C° 0 mm 2 mps 755 mmHg 83%
    19:00 +15°C° 0 mm 2 mps 755 mmHg 86%
    20:00 +15°C° 0 mm 2 mps 756 mmHg 89%
    21:00 +14°C° 0 mm 2 mps 756 mmHg 91%
    22:00 +14°C° 0 mm 2 mps 755 mmHg 92%
    23:00 +14°C° 0 mm 2 mps 755 mmHg 94%

    27 September, Wednesday

    Time Temperature Precipitation Wind Pressure Humidity
    00:00 +13°C° 0 mm 2 mps 755 mmHg 95%
    01:00 +13°C° 0 mm 2 mps 755 mmHg 95%
    02:00 +13°C° 0 mm 2 mps 755 mmHg 96%
    03:00 +13°C° 0 mm 2 mps 754 mmHg 96%
    04:00 +13°C° 0 mm 2 mps 754 mmHg 96%
    05:00 +13°C° 0 mm 2 mps 754 mmHg 96%
    06:00 +12°C° 0 mm 3 mps 754 mmHg 96%
    07:00 +13°C° 0 mm 3 mps 754 mmHg 93%
    08:00 +14°C° 0 mm 4 mps 754 mmHg 89%
    09:00 +15°C° 0 mm 4 mps 754 mmHg 86%
    10:00 +17°C° 0 mm 4 mps 754 mmHg 82%
    11:00 +17°C° 0 mm 5 mps 754 mmHg 78%
    12:00 +19°C° 0 mm 5 mps 753 mmHg 74%
    13:00 +19°C° 0.1 mm 5 mps 753 mmHg 73%
    14:00 +19°C° 0.1 mm 5 mps 753 mmHg 72%
    15:00 +20°C° 0.1 mm 5 mps 752 mmHg 71%
    16:00 +19°C° 0.1 mm 4 mps 752 mmHg 75%
    17:00 +18°C° 0.1 mm 4 mps 752 mmHg 78%
    18:00 +17°C° 0.1 mm 3 mps 752 mmHg 82%
    19:00 +17°C° 0.2 mm 4 mps 752 mmHg 82%
    20:00 +15°C° 0.2 mm 4 mps 752 mmHg 83%
    21:00 +15°C° 0.2 mm 4 mps 752 mmHg 83%
    22:00 +15°C° 0.5 mm 4 mps 751 mmHg 84%
    23:00 +14°C° 0.5 mm 4 mps 751 mmHg 85%

    28 September, Thursday

    Time Temperature Precipitation Wind Pressure Humidity
    00:00 +14°C° 0.5 mm 3 mps 751 mmHg 86%
    01:00 +14°C° 0.7 mm 3 mps 751 mmHg 88%
    02:00 +14°C° 0.7 mm 3 mps 750 mmHg 89%
    03:00 +14°C° 0.7 mm 3 mps 750 mmHg 91%
    04:00 +14°C° 0.4 mm 3 mps 750 mmHg 92%
    05:00 +14°C° 0.4 mm 3 mps 750 mmHg 93%
    06:00 +14°C° 0.4 mm 3 mps 750 mmHg 94%
    07:00 +14°C° 0.4 mm 3 mps 751 mmHg 93%
    08:00 +15°C° 0.4 mm 2 mps 751 mmHg 93%
    09:00 +15°C° 0.4 mm 2 mps 751 mmHg 92%
    10:00 +16°C° 0.1 mm 2 mps 752 mmHg 91%
    11:00 +16°C° 0.1 mm 2 mps 752 mmHg 89%
    12:00 +16°C° 0.1 mm 3 mps 752 mmHg 87%
    13:00 +16°C° 0 mm 2 mps 752 mmHg 85%
    14:00 +17°C° 0 mm 2 mps 752 mmHg 84%
    15:00 +17°C° 0 mm 2 mps 752 mmHg 82%
    16:00 +16°C° 0 mm 2 mps 753 mmHg 84%
    17:00 +15°C° 0 mm 2 mps 753 mmHg 86%
    18:00 +14°C° 0 mm 1 mps 753 mmHg 88%
    19:00 +14°C° 0 mm 1 mps 753 mmHg 89%
    20:00 +13°C° 0 mm 1 mps 754 mmHg 89%
    21:00 +12°C° 0 mm 1 mps 754 mmHg 90%
    22:00 +12°C° 0 mm 1 mps 754 mmHg 90%
    23:00 +12°C° 0 mm 1 mps 754 mmHg 91%

    29 September, Friday

    Time Temperature Precipitation Wind Pressure Humidity
    00:00 +12°C° 0 mm 1 mps 753 mmHg 91%
    01:00 +12°C° 0 mm 2 mps 753 mmHg 90%
    02:00 +12°C° 0 mm 2 mps 753 mmHg 90%
    03:00 +10°C° 0 mm 2 mps 753 mmHg 90%
    04:00 +10°C° 0 mm 2 mps 753 mmHg 89%
    05:00 +10°C° 0 mm 3 mps 753 mmHg 87%
    06:00 +10°C° 0 mm 3 mps 752 mmHg 86%
    07:00 +11°C° 0 mm 3 mps 752 mmHg 84%
    08:00 +12°C° 0 mm 4 mps 752 mmHg 81%
    09:00 +13°C° 0 mm 4 mps 752 mmHg 79%
    10:00 +14°C° 0.1 mm 4 mps 752 mmHg 77%
    11:00 +15°C° 0.1 mm 5 mps 752 mmHg 76%
    12:00 +15°C° 0.1 mm 5 mps 751 mmHg 75%
    13:00 +15°C° 0.1 mm 4 mps 751 mmHg 77%
    14:00 +15°C° 0.1 mm 4 mps 751 mmHg 79%
    15:00 +15°C° 0.1 mm 4 mps 751 mmHg 80%
    16:00 +16°C° 0.3 mm 3 mps 751 mmHg 83%
    17:00 +14°C° 0.3 mm 3 mps 751 mmHg 86%
    18:00 +14°C° 0.3 mm 3 mps 751 mmHg 89%
    19:00 +13°C° 0.5 mm 3 mps 751 mmHg 89%
    20:00 +13°C° 0.5 mm 3 mps 751 mmHg 89%
    21:00 +13°C° 0.5 mm 3 mps 751 mmHg 89%
    22:00 +12°C° 0.7 mm 3 mps 751 mmHg 88%
    23:00 +11°C° 0.7 mm 4 mps 751 mmHg 86%
    Show more